When you browse on this site, cookies collect data to enhance your experience and personalize the content and advertising you see.
Visit our Privacy Policy to learn more. By continuing to use the site, you agree to this use of cookies and data.
  • In Latvia
  • List of Countries
  • For 7 days
  • Water Temperature
  • Weather Map
  • Weather Widgets
  • user-avatar
    Login

    Hourly Weather Renens

    Today, 22 September, Sunday

    Time Temperature Precipitation Wind Pressure Humidity
    00:00 +18°C° 0 mm 1 mps 723 mmHg 71%
    01:00 +18°C° 0 mm 1 mps 723 mmHg 71%
    02:00 +18°C° 0 mm 1 mps 723 mmHg 71%
    03:00 +18°C° 0 mm 1 mps 722 mmHg 71%
    04:00 +16°C° 0.1 mm 1 mps 722 mmHg 73%
    05:00 +16°C° 0.1 mm 1 mps 722 mmHg 75%
    06:00 +18°C° 0 mm 1 mps 722 mmHg 74%
    07:00 +19°C° 0 mm 1 mps 722 mmHg 70%
    08:00 +21°C° 0 mm 1 mps 722 mmHg 66%
    09:00 +23°C° 0 mm 1 mps 722 mmHg 61%
    10:00 +24°C° 0.1 mm 1 mps 721 mmHg 59%
    11:00 +25°C° 0.1 mm 1 mps 721 mmHg 57%
    12:00 +26°C° 0 mm 2 mps 721 mmHg 56%
    13:00 +26°C° 0.3 mm 2 mps 721 mmHg 60%
    14:00 +25°C° 0.3 mm 2 mps 720 mmHg 63%
    15:00 +25°C° 0.3 mm 2 mps 720 mmHg 67%
    16:00 +23°C° 0.9 mm 1 mps 720 mmHg 74%
    17:00 +22°C° 0.9 mm 1 mps 721 mmHg 81%
    18:00 +20°C° 0.9 mm 1 mps 721 mmHg 88%
    19:00 +18°C° 2.6 mm 2 mps 721 mmHg 91%
    20:00 +16°C° 2.6 mm 3 mps 722 mmHg 93%
    21:00 +14°C° 2.6 mm 4 mps 722 mmHg 95%
    22:00 +14°C° 5.7 mm 3 mps 722 mmHg 96%
    23:00 +14°C° 5.7 mm 3 mps 723 mmHg 97%

    Tomorrow, 23 September, Monday

    Time Temperature Precipitation Wind Pressure Humidity
    00:00 +14°C° 5.7 mm 2 mps 723 mmHg 97%
    01:00 +14°C° 0.5 mm 2 mps 723 mmHg 96%
    02:00 +14°C° 0.5 mm 2 mps 723 mmHg 95%
    03:00 +14°C° 0.5 mm 1 mps 723 mmHg 94%
    04:00 +14°C° 0.1 mm 1 mps 724 mmHg 94%
    05:00 +14°C° 0.1 mm 1 mps 724 mmHg 94%
    06:00 +14°C° 0.1 mm 1 mps 724 mmHg 95%
    07:00 +15°C° 0.1 mm 1 mps 724 mmHg 91%
    08:00 +16°C° 0.1 mm 1 mps 725 mmHg 87%
    09:00 +18°C° 0.1 mm 1 mps 725 mmHg 82%
    10:00 +18°C° 0.1 mm 1 mps 725 mmHg 77%
    11:00 +19°C° 0.1 mm 1 mps 725 mmHg 72%
    12:00 +20°C° 0.1 mm 1 mps 725 mmHg 67%
    13:00 +20°C° 0 mm 1 mps 724 mmHg 66%
    14:00 +20°C° 0 mm 1 mps 724 mmHg 64%
    15:00 +20°C° 0 mm 1 mps 724 mmHg 62%
    16:00 +18°C° 0 mm 1 mps 724 mmHg 71%
    17:00 +16°C° 0 mm 1 mps 724 mmHg 79%
    18:00 +14°C° 0 mm 1 mps 724 mmHg 88%
    19:00 +13°C° 0 mm 1 mps 724 mmHg 88%
    20:00 +13°C° 0 mm 1 mps 725 mmHg 89%
    21:00 +12°C° 0 mm 1 mps 725 mmHg 90%
    22:00 +12°C° 0 mm 1 mps 725 mmHg 90%
    23:00 +12°C° 0 mm 1 mps 725 mmHg 89%

    Day after tomorrow, 24 September, Tuesday

    Time Temperature Precipitation Wind Pressure Humidity
    00:00 +12°C° 0 mm 1 mps 724 mmHg 89%
    01:00 +12°C° 0 mm 1 mps 724 mmHg 90%
    02:00 +11°C° 0 mm 1 mps 724 mmHg 91%
    03:00 +11°C° 0 mm 1 mps 723 mmHg 92%
    04:00 +12°C° 0 mm 1 mps 723 mmHg 91%
    05:00 +12°C° 0 mm 1 mps 723 mmHg 90%
    06:00 +11°C° 0 mm 0 mps 723 mmHg 89%
    07:00 +14°C° 0 mm 1 mps 723 mmHg 84%
    08:00 +15°C° 0 mm 1 mps 722 mmHg 80%
    09:00 +16°C° 0 mm 1 mps 722 mmHg 75%
    10:00 +16°C° 0 mm 2 mps 722 mmHg 74%
    11:00 +17°C° 0 mm 2 mps 722 mmHg 73%
    12:00 +17°C° 0 mm 2 mps 721 mmHg 72%
    13:00 +17°C° 0.1 mm 2 mps 721 mmHg 73%
    14:00 +17°C° 0.1 mm 3 mps 721 mmHg 75%
    15:00 +17°C° 0.1 mm 3 mps 721 mmHg 76%
    16:00 +16°C° 0.5 mm 3 mps 721 mmHg 81%
    17:00 +16°C° 0.5 mm 2 mps 721 mmHg 86%
    18:00 +15°C° 0.5 mm 2 mps 721 mmHg 91%
    19:00 +14°C° 0.8 mm 3 mps 721 mmHg 92%
    20:00 +14°C° 0.8 mm 3 mps 722 mmHg 94%
    21:00 +15°C° 0.8 mm 4 mps 722 mmHg 95%
    22:00 +14°C° 0.2 mm 4 mps 722 mmHg 95%
    23:00 +14°C° 0.2 mm 4 mps 722 mmHg 94%

    25 September, Wednesday

    Time Temperature Precipitation Wind Pressure Humidity
    00:00 +13°C° 0.2 mm 4 mps 722 mmHg 93%
    01:00 +13°C° 0.2 mm 4 mps 721 mmHg 93%
    02:00 +13°C° 0.2 mm 3 mps 721 mmHg 93%
    03:00 +13°C° 0.2 mm 3 mps 721 mmHg 94%
    04:00 +12°C° 0.2 mm 3 mps 721 mmHg 94%
    05:00 +12°C° 0.2 mm 3 mps 721 mmHg 94%
    06:00 +12°C° 0.2 mm 3 mps 721 mmHg 93%
    07:00 +13°C° 0.1 mm 3 mps 721 mmHg 89%
    08:00 +14°C° 0.1 mm 4 mps 721 mmHg 84%
    09:00 +15°C° 0.1 mm 4 mps 721 mmHg 79%
    10:00 +17°C° 0.1 mm 4 mps 721 mmHg 75%
    11:00 +16°C° 0.1 mm 5 mps 721 mmHg 70%
    12:00 +17°C° 0.1 mm 5 mps 721 mmHg 65%
    13:00 +17°C° 0.2 mm 5 mps 721 mmHg 69%
    14:00 +17°C° 0.2 mm 4 mps 721 mmHg 72%
    15:00 +15°C° 0.2 mm 4 mps 721 mmHg 76%
    16:00 +14°C° 0.1 mm 3 mps 721 mmHg 80%
    17:00 +13°C° 0.1 mm 3 mps 722 mmHg 83%
    18:00 +14°C° 0.1 mm 2 mps 722 mmHg 87%
    19:00 +13°C° 0 mm 2 mps 722 mmHg 88%
    20:00 +13°C° 0 mm 2 mps 723 mmHg 88%
    21:00 +13°C° 0 mm 2 mps 723 mmHg 89%
    22:00 +13°C° 0 mm 2 mps 723 mmHg 89%
    23:00 +13°C° 0 mm 2 mps 723 mmHg 89%

    26 September, Thursday

    Time Temperature Precipitation Wind Pressure Humidity
    00:00 +13°C° 0 mm 2 mps 723 mmHg 89%
    01:00 +13°C° 0.2 mm 2 mps 723 mmHg 90%
    02:00 +13°C° 0.2 mm 2 mps 723 mmHg 90%
    03:00 +13°C° 0.2 mm 2 mps 724 mmHg 91%
    04:00 +14°C° 0.2 mm 2 mps 724 mmHg 91%
    05:00 +14°C° 0.2 mm 2 mps 724 mmHg 91%
    06:00 +14°C° 0.2 mm 2 mps 724 mmHg 92%
    07:00 +15°C° 0 mm 2 mps 724 mmHg 88%
    08:00 +16°C° 0 mm 2 mps 725 mmHg 84%
    09:00 +17°C° 0 mm 2 mps 725 mmHg 80%
    10:00 +20°C° 0 mm 1 mps 725 mmHg 75%
    11:00 +21°C° 0 mm 1 mps 725 mmHg 70%
    12:00 +22°C° 0 mm 1 mps 724 mmHg 66%
    13:00 +22°C° 0 mm 1 mps 724 mmHg 67%
    14:00 +22°C° 0 mm 1 mps 724 mmHg 68%
    15:00 +22°C° 0 mm 1 mps 724 mmHg 69%
    16:00 +21°C° 0 mm 1 mps 724 mmHg 74%
    17:00 +19°C° 0 mm 1 mps 724 mmHg 79%
    18:00 +16°C° 0 mm 0 mps 724 mmHg 85%
    19:00 +18°C° 0 mm 1 mps 724 mmHg 84%
    20:00 +18°C° 0 mm 1 mps 725 mmHg 83%
    21:00 +18°C° 0 mm 1 mps 725 mmHg 82%
    22:00 +18°C° 0.1 mm 1 mps 725 mmHg 84%
    23:00 +18°C° 0.1 mm 1 mps 725 mmHg 85%

    27 September, Friday

    Time Temperature Precipitation Wind Pressure Humidity
    00:00 +18°C° 0.1 mm 1 mps 725 mmHg 87%
    01:00 +18°C° 0 mm 1 mps 725 mmHg 87%
    02:00 +18°C° 0 mm 1 mps 724 mmHg 87%
    03:00 +18°C° 0 mm 1 mps 724 mmHg 88%
    04:00 +16°C° 0 mm 1 mps 724 mmHg 88%
    05:00 +16°C° 0 mm 1 mps 724 mmHg 88%
    06:00 +16°C° 0 mm 1 mps 724 mmHg 89%
    07:00 +17°C° 0 mm 2 mps 724 mmHg 83%
    08:00 +19°C° 0 mm 2 mps 724 mmHg 78%
    09:00 +20°C° 0 mm 3 mps 724 mmHg 73%
    10:00 +21°C° 0.2 mm 3 mps 724 mmHg 71%
    11:00 +22°C° 0.2 mm 4 mps 724 mmHg 69%
    12:00 +22°C° 0.2 mm 4 mps 724 mmHg 67%
    13:00 +22°C° 0.3 mm 4 mps 723 mmHg 68%
    14:00 +22°C° 0.3 mm 3 mps 723 mmHg 68%
    15:00 +22°C° 0.3 mm 3 mps 723 mmHg 69%
    16:00 +20°C° 0.6 mm 2 mps 723 mmHg 77%
    17:00 +18°C° 0.6 mm 2 mps 723 mmHg 85%
    18:00 +18°C° 0.6 mm 1 mps 723 mmHg 93%
    19:00 +16°C° 0.9 mm 2 mps 724 mmHg 93%
    20:00 +16°C° 0.9 mm 2 mps 724 mmHg 94%
    21:00 +16°C° 0.9 mm 2 mps 724 mmHg 94%
    22:00 +16°C° 0.2 mm 2 mps 724 mmHg 94%
    23:00 +15°C° 0.2 mm 2 mps 724 mmHg 93%
    Show more